Tracking 30115 objects as of 9-Feb-2025
HD Live streaming from Space Station
objects crossing your sky now

GEESAT 3-09

Track GEESAT 3-09 now!
10-day predictions


NORAD ID: 61019
Int'l Code: 2024-159J
Perigee: 593.5 km
Apogee: 603.0 km
Inclination: 50.0 °
Period: 96.5 minutes
Semi major axis: 6969 km
RCS: Unknown
Launch date: September 5, 2024
Source: People's Republic of China (PRC)
Launch site: Taiyaun Space Center, China (TSC)
Your satellite tracking list
Your tracking list is empty




NASA's NSSDC Master Catalog

Two Line Element Set (TLE):
1 61019U 24159J   25040.55792517  .00007243  00000-0  72588-3 0  9999
2 61019  49.9952 222.3101 0006798 148.2733 211.8619 14.92196832 23408
Source of the keplerian elements: AFSPC